Kiama Observation History
Time Wind Speed Temp Pressure Rel. Hum Rain
03/07:30am WSW 8-16 kts 13.4°c n/a 53% 0.0mm
03/07:00am WNW 6-12 kts 12.5°c n/a 56% 0.0mm
03/06:30am WNW 6-10 kts 12.5°c n/a 56% 0.0mm
03/06:00am WNW 8-12 kts 12.9°c n/a 54% 0.0mm
03/05:30am W 10-16 kts 12.7°c n/a 55% 0.0mm
03/05:00am W 13-22 kts 12.8°c n/a 55% 0.0mm
03/04:30am W 12-21 kts 12.8°c n/a 55% 0.0mm
03/04:00am W 14-20 kts 12.8°c n/a 55% 0.0mm
03/03:30am WSW 15-22 kts 12.9°c n/a 54% 0.0mm
03/03:00am WSW 18-25 kts 13.0°c n/a 54% 0.0mm
03/02:30am WSW 20-29 kts 12.9°c n/a 54% 0.0mm
03/02:04am WSW 21-31 kts 13.0°c n/a 54% 0.0mm
03/02:00am WSW 22-31 kts 13.1°c n/a 54% 0.0mm
03/01:46am WSW 23-33 kts 13.0°c n/a 55% 0.0mm
03/01:30am WSW 19-28 kts 13.0°c n/a 55% 0.0mm
03/01:18am WSW 21-31 kts 12.9°c n/a 55% 0.0mm
03/01:00am WSW 20-28 kts 12.9°c n/a 55% 0.0mm
03/12:42am WSW 19-31 kts 12.8°c n/a 54% 0.0mm
03/12:30am WSW 19-26 kts 12.8°c n/a 54% 0.0mm
03/12:00am WSW 18-28 kts 12.6°c n/a 55% 0.0mm
Time Wind Speed Temp Pressure Rel. Hum Rain
02/11:53pm WSW 17-28 kts 12.5°c n/a 55% 0.0mm
02/11:30pm WSW 16-25 kts 12.5°c n/a 54% 0.0mm
02/11:24pm WSW 15-25 kts 12.4°c n/a 54% 0.0mm
02/11:00pm WSW 13-24 kts 12.2°c n/a 54% 0.0mm
02/10:30pm WSW 14-21 kts 11.8°c n/a 55% 0.0mm
02/10:00pm WSW 16-27 kts 11.9°c n/a 54% 0.0mm
02/09:30pm W 17-29 kts 11.7°c n/a 54% 0.0mm
02/09:04pm W 17-27 kts 11.6°c n/a 55% 0.0mm
02/09:00pm WSW 17-26 kts 11.6°c n/a 55% 0.0mm
02/08:30pm W 16-26 kts 11.4°c n/a 56% 0.0mm
02/08:26pm W 16-26 kts 11.4°c n/a 56% 0.0mm
02/08:00pm W 13-23 kts 11.2°c n/a 56% 0.0mm
02/07:30pm W 11-19 kts 11.3°c n/a 57% 0.0mm
02/07:00pm W 12-19 kts 11.5°c n/a 57% 0.0mm
02/06:30pm WSW 11-17 kts 11.6°c n/a 58% 0.0mm
02/06:00pm WSW 10-14 kts 12.2°c n/a 57% 0.0mm
02/05:30pm WSW 10-16 kts 12.5°c n/a 57% 0.0mm
02/05:00pm W 5-10 kts 12.9°c n/a 56% 0.0mm
02/04:30pm WSW 9-12 kts 14.2°c n/a 52% 0.0mm
02/04:00pm WSW 8-13 kts 15.1°c n/a 50% 0.0mm
02/03:30pm SW 8-13 kts 15.4°c n/a 50% 0.0mm
02/03:00pm SSW 8-12 kts 15.9°c n/a 50% 0.0mm
02/02:30pm S 12-15 kts 15.3°c n/a 55% 0.0mm
02/02:00pm SSW 10-14 kts 15.4°c n/a 55% 0.0mm
02/01:30pm S 13-19 kts 15.4°c n/a 53% 0.0mm
02/01:04pm SSW 15-26 kts 15.4°c n/a 52% 0.0mm
02/01:00pm SSW 16-26 kts 15.3°c n/a 51% 0.0mm
02/12:30pm SSW 13-19 kts 15.1°c n/a 48% 0.0mm
02/12:02pm SSW 16-27 kts 15.1°c n/a 48% 0.0mm
02/12:00pm SSW 17-27 kts 15.2°c n/a 49% 0.0mm
02/11:30am SSW 16-26 kts 15.1°c n/a 49% 0.0mm
02/11:24am SSW 16-26 kts 15.0°c n/a 48% 0.0mm
02/11:00am SSW 11-16 kts 14.9°c n/a 50% 0.0mm
02/10:30am SSW 11-19 kts 14.4°c n/a 51% 0.0mm
02/10:00am SW 11-18 kts 13.6°c n/a 52% 0.0mm
02/09:30am WSW 10-14 kts 12.5°c n/a 56% 0.0mm
02/09:00am WSW 11-15 kts 11.7°c n/a 59% 1.0mm
02/08:30am WSW 12-20 kts 11.0°c n/a 62% 1.0mm
02/08:00am W 12-18 kts 10.1°c n/a 66% 1.0mm
02/07:30am W 11-17 kts 9.7°c n/a 69% 1.0mm
02/07:00am WNW 11-16 kts 9.0°c n/a 71% 1.0mm
02/06:30am W 7-12 kts 8.8°c n/a 73% 1.0mm
02/06:00am W 8-11 kts 8.8°c n/a 73% 0.8mm
02/05:30am SSW 16-23 kts 9.9°c n/a 70% 0.6mm
02/05:00am SW 16-25 kts 11.0°c n/a 56% 0.0mm
02/04:48am SW 15-25 kts 11.4°c n/a 53% 0.0mm
02/04:30am SW 15-25 kts 12.0°c n/a 49% 0.0mm
02/04:00am WSW 10-15 kts 10.9°c n/a 52% 0.0mm
02/03:30am W 8-12 kts 10.6°c n/a 54% 0.0mm
02/03:00am W 11-16 kts 10.5°c n/a 54% 0.0mm
02/02:30am W 12-18 kts 10.5°c n/a 54% 0.0mm
02/02:00am W 13-22 kts 10.1°c n/a 55% 0.0mm
02/01:30am W 14-23 kts 10.2°c n/a 54% 0.0mm
02/01:18am W 15-25 kts 10.4°c n/a 53% 0.0mm
02/01:00am W 17-25 kts 10.5°c n/a 52% 0.0mm
02/12:30am WSW 17-27 kts 10.6°c n/a 52% 0.0mm
02/12:01am W 15-31 kts 10.5°c n/a 53% 0.0mm
02/12:00am W 14-25 kts 10.4°c n/a 54% 0.0mm
Time Wind Speed Temp Pressure Rel. Hum Rain
01/11:30pm W 13-23 kts 10.5°c n/a 53% 0.0mm
01/11:00pm W 8-17 kts 10.8°c n/a 52% 0.0mm
01/10:30pm W 12-20 kts 11.1°c n/a 52% 0.0mm
01/10:00pm W 12-21 kts 11.6°c n/a 51% 0.0mm
01/09:30pm W 12-18 kts 11.7°c n/a 51% 0.0mm
01/09:00pm WSW 14-23 kts 11.8°c n/a 51% 0.0mm
01/08:32pm WSW 15-28 kts 12.0°c n/a 50% 0.0mm
01/08:30pm WSW 14-28 kts 12.0°c n/a 50% 0.0mm
01/08:00pm W 11-17 kts 12.2°c n/a 50% 0.0mm
01/07:30pm W 12-24 kts 12.8°c n/a 49% 0.0mm
01/07:00pm W 11-17 kts 13.2°c n/a 51% 0.0mm
01/06:30pm W 9-16 kts 13.5°c n/a 50% 0.0mm
01/06:00pm W 10-19 kts 13.8°c n/a 49% 0.0mm
01/05:30pm W 12-19 kts 14.1°c n/a 49% 0.0mm
01/05:00pm WSW 15-28 kts 14.7°c n/a 51% 0.0mm
01/04:49pm WSW 15-25 kts 15.3°c n/a 51% 0.0mm
01/04:41pm WSW 11-25 kts 16.7°c n/a 45% 0.0mm
01/04:30pm W 8-14 kts 17.6°c n/a 39% 0.0mm
01/04:00pm WSW 13-18 kts 18.2°c n/a 40% 0.0mm
01/03:30pm W 10-17 kts 19.3°c n/a 33% 0.0mm
01/03:00pm W 5-9 kts 19.8°c n/a 37% 0.0mm
01/02:30pm SW 3-4 kts 19.5°c n/a 47% 0.0mm
01/02:00pm E 2 kts 19.6°c n/a 53% 0.0mm
01/01:30pm NNE 4-6 kts 19.4°c n/a 55% 0.0mm
01/01:00pm NNE 4-7 kts 20.3°c n/a 48% 0.0mm
01/12:30pm N 8-11 kts 21.0°c n/a 47% 0.0mm
01/12:00pm N 8-11 kts 20.5°c n/a 49% 0.0mm
01/11:30am N 9-12 kts 20.1°c n/a 49% 0.0mm
01/11:00am N 7-11 kts 19.4°c n/a 47% 0.0mm
01/10:30am NNW 9-15 kts 18.5°c n/a 49% 0.0mm
01/10:00am NNW 7-12 kts 18.3°c n/a 47% 0.0mm
01/09:30am NNW 5-10 kts 17.2°c n/a 54% 0.0mm
01/09:00am NW 5-10 kts 16.7°c n/a 53% 0.0mm
01/08:30am W 1-3 kts 15.9°c n/a 58% 0.0mm
01/08:00am WSW 2-3 kts 13.7°c n/a 65% 0.0mm
01/07:30am N 3-4 kts 13.3°c n/a 69% 0.0mm
01/07:00am CALM 0 kts 12.5°c n/a 68% 0.0mm
01/06:30am SSW 1-2 kts 12.2°c n/a 66% 0.0mm
01/06:00am CALM 0 kts 12.3°c n/a 66% 0.0mm
01/05:30am NNW 1-2 kts 13.1°c n/a 62% 0.0mm
01/05:00am NW 4-5 kts 13.2°c n/a 64% 0.0mm
01/04:30am N 2-4 kts 12.8°c n/a 65% 0.0mm
01/04:00am N 1 kts 13.6°c n/a 64% 0.0mm
01/03:30am WSW 2-4 kts 13.9°c n/a 56% 0.0mm
01/03:00am NNW 3-4 kts 14.7°c n/a 56% 0.0mm
01/02:30am NNW 4-5 kts 14.5°c n/a 55% 0.0mm
01/02:00am NW 5-6 kts 14.6°c n/a 54% 0.0mm
01/01:30am NW 6-7 kts 15.2°c n/a 51% 0.0mm
01/01:00am WNW 5-7 kts 15.1°c n/a 52% 0.0mm
01/12:30am NW 7-10 kts 15.4°c n/a 51% 0.0mm
01/12:00am WNW 7-8 kts 15.0°c n/a 53% 0.0mm